Location: Ponte Samoggia
(44.5667°N, 11.1333°E)
Time: 23:22:15
(UTC+00:00)

USA 267 - Pass Details

Date: 26 May 2022
Orbit: 1101 x 1106 km, 123.0° (Epoch: 25 June)

Event Time Altitude Azimuth Distance (km) Brightness Sun altitude
Exits shadow 01:02:05 25° 241° (WSW) 2,036 4.2 -19.7°
Drops below altitude 10° 01:06:56 10° 289° (WNW) 2,962 5.4 -19.3°
Sets 01:09:56 0° 302° (WNW) 3,924 6.2 -19.1°
